Regional Weather Roundup
Issued by NWS Jackson, KY

Home | Current Version | Previous Version | Graphics & Text | Print | Product List | Glossary On
Versions: 1 2 3 4 5 6 7 8 9 10 11 12 13 14 15 16 17 18 19 20 21 22 23 24 25 26 27 28 29 30 31 32 33 34 35 36 37 38 39 40 41 42 43 44 45 46 47 48 49 50
000
ASUS43 KJKL 061010
RWRJKL

EAST KENTUCKY HOURLY WEATHER ROUNDUP
NATIONAL WEATHER SERVICE JACKSON KY
600 AM EDT MON JUL 06 2015

NOTE: "FAIR" INDICATES FEW OR NO CLOUDS BELOW 12,000 FEET WITH
NO SIGNIFICANT WEATHER AND/OR OBSTRUCTIONS TO VISIBILITY.

* THESE REPORTS ARE NOT UNDER NWS QUALITY CONTROL AND MAY NOT
  REPORT WEATHER SUCH AS PRECIPITATION AND FOG.

KYZ079-080-083-085-087-088-110-112-115-119-120-061100
...EASTERN KENTUCKY...

CITY           SKY/WX    TMP DP  RH WIND       PRES   REMARKS
JACKSON        FOG       66  65  96 CALM      30.10R VSB 1/4
LONDON         CLOUDY    67  64  90 CALM      30.11R FOG
SOMERSET*      FOG       64  64 100 CALM      30.11R VSB 1/4
MONTICELLO*    FOG       65  65 100 CALM      30.13R VSB<1/4
MIDDLESBORO*   FOG       64  64 100 CALM      30.13R VSB 1/4
HARLAN APT*      N/A     64  64 100 CALM      30.13R
HAZARD APT*    CLOUDY    68  68 100 SW5       30.11R
BLACK MTN*       N/A     59  59 100 SW1         N/A
PIKEVILLE APT* CLOUDY    66  66 100 CALM      30.10R FOG
BIG SANDY*     CLOUDY    67  67 100 CALM      30.08R FOG
MOREHEAD APT*  FOG       64  64 100 S3        30.10R VSB 1/4
$$

KYZ035-036-041-042-044-050-067-078-099-061100
...CENTRAL KENTUCKY...

CITY           SKY/WX    TMP DP  RH WIND       PRES   REMARKS
MT STERLING*   PTCLDY    64  64 100 CALM      30.10R FOG
FLEMING/MASON* CLEAR     64  64 100 W5        30.09R FOG
DANVILLE*      CLOUDY    63  63 100 CALM      30.11R FOG
RICHMOND*      PTCLDY    64  63  94 CALM      30.10R
LEXINGTON      PTCLDY    66  64  93 CALM      30.10R
FRANKFORT      PTCLDY    62  59  90 CALM      30.09R FOG
$$

KYZ091>093-OHZ055-061-077-WVZ005-015-034-035-042-061100
...SOUTHERN OHIO/WEST VIRGINIA...

CITY           SKY/WX    TMP DP  RH WIND       PRES   REMARKS
COVINGTON      PTCLDY    62  59  90 CALM      30.09R FOG
COLUMBUS       MOCLDY    65  62  90 N5        30.05R
DAYTON         CLEAR     63  60  90 CALM      30.10R
WILMINGTON     CLEAR     65  60  84 NW7       30.08R
HUNTINGTON     CLOUDY    66  66 100 SW5       30.04R FOG
CHARLESTON     FOG       64  63  96 CALM      30.06R VSB 1/4
PINEVILLE*     CLOUDY    64  64 100 MISG      30.15R
BECKLEY        MOCLDY    64  62  93 CALM      30.13R
BLUEFIELD      LGT RAIN  66  62  87 CALM      30.14S
$$

VAZ002-007-008-TNZ017-027-036-066-071-061100
...SOUTHWEST VIRGINIA/EAST TENNESSEE...

CITY           SKY/WX    TMP DP  RH WIND       PRES   REMARKS
WISE*          CLOUDY    64  64 100 W5        30.16R
JONESVILLE*      N/A    N/A N/A N/A MISG        N/A
ABINGDON*      CLOUDY    67  67 100 W8        30.13R FOG
BRISTOL        CLOUDY    67  66  97 SW5       30.12R
KNOXVILLE      CLOUDY    68  66  93 W3        30.10R
OAK RIDGE      CLOUDY    69  68  96 CALM      30.12R FOG
CROSSVILLE     CLOUDY    70  67  90 W5        30.15R FOG
NASHVILLE      CLEAR     69  69 100 CALM      30.10R
$$

...KEY TO REMARKS...
VSB - VISIBILITY IN MILES
WCI - WIND CHILL INDEX
HX  - HEAT INDEX

$$



USA.gov is the U.S. government's official web portal to all federal, state and local government web resources and services.